Weather History for Le Mars, IA

Change the Weather History Date:

Monday, February 3, 2014

  Actual Average Record
Temperature  
Mean Temperature 12 °F -  
Max Temperature 24 °F 27 °F 59 °F (2005)
Min Temperature 0 °F 6 °F -20 °F (1989)
Degree Days  
Heating Degree Days 53    
Moisture  
Dew Point 10 °F    
Average Humidity 80    
Maximum Humidity 92    
Minimum Humidity 68    
Precipitation  
Precipitation 0.00 in - - ()
Sea Level Pressure  
Sea Level Pressure 30.21 in    
Wind  
Wind Speed 6 mph (ENE)    
Max Wind Speed 13 mph    
Max Gust Speed 16 mph    
Visibility 10 miles    
Events Snow    
Averages and records for this station are not official NWS values.
T = Trace of Precipitation, MM = Missing Value Source: NWS Daily Summary

Daily Weather History Graph

Daily Weather History Graph

Search for Another Location

Airport:

Trip Planner

Search our weather history database for the weather conditions in past years. The results will help you decide how hot, cold, wet, or windy it might be!

Date:

Astronomy

Feb. 03, 2014 Rise Set
Actual Time 7:37 AM CST 5:40 PM CST
Civil Twilight 7:07 AM CST 6:10 PM CST
Nautical Twilight 6:33 AM CST 6:44 PM CST
Astronomical Twilight 6:00 AM CST 7:17 PM CST
Moon 9:32 AM CST (2/3) 10:40 PM CST (2/3)
Length of Visible Light 11h 03m
Length of Day
10h 03m
Waxing Crescent, 20% of the Moon is Illuminated
Feb 3
Waxing Crescent
Feb 6
First Quarter
Feb 14
Full
Feb 22
Last Quarter
Mar 1
New

Hourly Weather History & Observations

Time (CST) Temp. Windchill Dew Point Humidity Pressure Visibility Wind Dir Wind Speed Gust Speed Precip Events Conditions
12:15 AM 12.2 °F -0.2 °F 8.6 °F 85% 30.16 in 10.0 mi South 9.2 mph - N/A   Clear
12:35 AM 12.2 °F -0.2 °F 8.6 °F 85% 30.16 in 10.0 mi SSW 9.2 mph - N/A   Clear
12:55 AM 12.2 °F 0.7 °F 8.6 °F 85% 30.16 in 10.0 mi South 8.1 mph - N/A   Clear
1:15 AM 10.4 °F -0.4 °F 6.8 °F 85% 30.16 in 10.0 mi South 6.9 mph - N/A   Clear
1:35 AM 10.4 °F 0.8 °F 6.8 °F 85% 30.16 in 10.0 mi South 5.8 mph - N/A   Clear
2:15 AM 10.4 °F -1.5 °F 6.8 °F 85% 30.17 in 10.0 mi South 8.1 mph - N/A   Clear
2:35 AM 10.4 °F -1.5 °F 6.8 °F 85% 30.17 in 10.0 mi South 8.1 mph - N/A   Clear
2:55 AM 10.4 °F -2.4 °F 6.8 °F 85% 30.17 in 10.0 mi South 9.2 mph - N/A   Clear
3:15 AM 8.6 °F -3.7 °F 5.0 °F 85% 30.17 in 10.0 mi South 8.1 mph - N/A   Clear
3:35 AM 8.6 °F -1.3 °F 5.0 °F 85% 30.17 in 10.0 mi South 5.8 mph - N/A   Clear
3:55 AM 6.8 °F -0.1 °F 3.2 °F 85% 30.17 in 10.0 mi SW 3.5 mph - N/A   Clear
4:15 AM 6.8 °F - 3.2 °F 85% 30.17 in 10.0 mi Calm Calm - N/A   Clear
4:35 AM 5.0 °F -2.1 °F 3.2 °F 92% 30.17 in 10.0 mi South 3.5 mph - N/A   Clear
4:55 AM 5.0 °F -2.1 °F 3.2 °F 92% 30.17 in 10.0 mi SSE 3.5 mph - N/A   Clear
5:15 AM 6.8 °F - 3.2 °F 85% 30.17 in 10.0 mi Calm Calm - N/A   Clear
5:35 AM 3.2 °F - -0.4 °F 85% 30.17 in 10.0 mi Calm Calm - N/A   Clear
5:55 AM 1.4 °F - -2.2 °F 85% 30.17 in 10.0 mi Calm Calm - N/A   Clear
6:15 AM 1.4 °F - -0.4 °F 92% 30.18 in 10.0 mi Calm Calm - N/A   Clear
6:35 AM 1.4 °F - -2.2 °F 85% 30.18 in 10.0 mi Calm Calm - N/A   Clear
6:55 AM 1.4 °F - -2.2 °F 85% 30.18 in 10.0 mi Calm Calm - N/A   Clear
7:15 AM 1.4 °F - -2.2 °F 85% 30.19 in 10.0 mi Calm Calm - N/A   Clear
7:35 AM -0.4 °F - -4.0 °F 85% 30.20 in 10.0 mi Calm Calm - N/A   Clear
7:55 AM -0.4 °F - -2.2 °F 92% 30.20 in 10.0 mi Calm Calm - N/A   Clear
8:15 AM 1.4 °F - -2.2 °F 85% 30.20 in 10.0 mi Calm Calm - N/A   Clear
8:35 AM 5.0 °F - 1.4 °F 85% 30.21 in 10.0 mi Calm Calm - N/A   Clear
8:55 AM 6.8 °F - 3.2 °F 85% 30.21 in 10.0 mi Calm Calm - N/A   Clear
9:15 AM 8.6 °F -1.3 °F 5.0 °F 85% 30.22 in 10.0 mi SSW 5.8 mph - N/A   Clear
9:35 AM 10.4 °F 2.2 °F 6.8 °F 85% 30.23 in 10.0 mi SSW 4.6 mph - N/A   Clear
9:55 AM 12.2 °F 6.1 °F 6.8 °F 79% 30.22 in 10.0 mi South 3.5 mph - N/A   Clear
10:15 AM 14.0 °F - 8.6 °F 79% 30.22 in 10.0 mi Calm Calm - N/A   Clear
10:35 AM 15.8 °F - 10.4 °F 79% 30.22 in 10.0 mi Calm Calm - N/A   Clear
10:55 AM 19.4 °F - 12.2 °F 74% 30.23 in 10.0 mi Calm Calm - N/A   Clear
11:15 AM 17.6 °F - 12.2 °F 79% 30.23 in 10.0 mi Calm Calm - N/A   Clear
11:35 AM 19.4 °F - 12.2 °F 74% 30.23 in 10.0 mi Calm Calm - N/A   Clear
11:55 AM 19.4 °F - 12.2 °F 74% 30.22 in 10.0 mi Calm Calm - N/A   Clear
12:15 PM 19.4 °F - 12.2 °F 74% 30.22 in 10.0 mi Calm Calm - N/A   Clear
12:35 PM 21.2 °F - 12.2 °F 68% 30.21 in 10.0 mi Calm Calm - N/A   Clear
12:55 PM 21.2 °F 14.9 °F 14.0 °F 74% 30.20 in 10.0 mi NNE 4.6 mph - N/A   Clear
1:15 PM 23.0 °F 14.7 °F 15.8 °F 74% 30.20 in 10.0 mi NNE 6.9 mph - N/A   Clear
1:35 PM 23.0 °F 14.7 °F 15.8 °F 74% 30.19 in 10.0 mi NE 6.9 mph - N/A   Clear
1:55 PM 23.0 °F 15.8 °F 15.8 °F 74% 30.20 in - NE 5.8 mph - N/A   Clear
2:15 PM 24.8 °F 16.1 °F 15.8 °F 69% 30.19 in 10.0 mi NE 8.1 mph - N/A   Clear
2:35 PM 24.8 °F 17.9 °F 15.8 °F 69% 30.20 in 10.0 mi NNE 5.8 mph - N/A   Scattered Clouds
2:55 PM 23.0 °F 13.1 °F 15.8 °F 74% 30.20 in 10.0 mi NE 9.2 mph - N/A   Overcast
3:15 PM 23.0 °F 13.1 °F 15.8 °F 74% 30.20 in 10.0 mi NE 9.2 mph - N/A   Overcast
3:35 PM 23.0 °F 13.1 °F 15.8 °F 74% 30.20 in 10.0 mi NE 9.2 mph - N/A   Overcast
3:55 PM 23.0 °F 13.9 °F 15.8 °F 74% 30.20 in 10.0 mi NE 8.1 mph - N/A   Overcast
4:15 PM 23.0 °F 12.4 °F 15.8 °F 74% 30.20 in 10.0 mi ENE 10.4 mph 16.1 mph N/A   Overcast
4:35 PM 23.0 °F 14.7 °F 15.8 °F 74% 30.20 in 10.0 mi ENE 6.9 mph - N/A   Overcast
4:55 PM 23.0 °F 13.1 °F 15.8 °F 74% 30.19 in 10.0 mi ENE 9.2 mph - N/A   Overcast
5:15 PM 21.2 °F 9.5 °F 14.0 °F 74% 30.19 in 10.0 mi ENE 11.5 mph - N/A   Overcast
5:35 PM 21.2 °F 8.9 °F 14.0 °F 74% 30.19 in 10.0 mi NE 12.7 mph - N/A   Overcast
5:55 PM 21.2 °F 9.5 °F 14.0 °F 74% 30.20 in 10.0 mi NE 11.5 mph - N/A   Overcast
6:15 PM 21.2 °F 10.9 °F 14.0 °F 74% 30.21 in 10.0 mi NE 9.2 mph - N/A   Overcast
6:35 PM 21.2 °F 10.9 °F 14.0 °F 74% 30.21 in 9.0 mi NE 9.2 mph - N/A Snow Light Snow
6:55 PM 21.2 °F 10.1 °F 14.0 °F 74% 30.21 in 5.0 mi ENE 10.4 mph - N/A Snow Light Snow
7:15 PM 21.2 °F 10.9 °F 14.0 °F 74% 30.22 in 9.0 mi NE 9.2 mph - N/A   Overcast
7:35 PM 19.4 °F 7.9 °F 15.8 °F 86% 30.22 in 8.0 mi NE 10.4 mph - N/A   Overcast
7:55 PM 19.4 °F 9.5 °F 14.0 °F 80% 30.23 in 10.0 mi NE 8.1 mph 13.8 mph N/A   Overcast
8:15 PM 19.4 °F 9.5 °F 14.0 °F 80% 30.23 in 10.0 mi ENE 8.1 mph - N/A   Overcast
8:35 PM 19.4 °F 8.6 °F 14.0 °F 80% 30.23 in 10.0 mi NE 9.2 mph - N/A   Overcast
8:55 PM 19.4 °F 9.5 °F 14.0 °F 80% 30.23 in 10.0 mi NE 8.1 mph - N/A   Overcast
9:15 PM 19.4 °F 9.5 °F 14.0 °F 80% 30.23 in 10.0 mi NE 8.1 mph - N/A   Overcast
9:35 PM 19.4 °F 9.5 °F 14.0 °F 80% 30.24 in 10.0 mi NE 8.1 mph - N/A   Overcast
9:55 PM 19.4 °F 9.5 °F 14.0 °F 80% 30.25 in 10.0 mi ENE 8.1 mph - N/A   Overcast
10:15 PM 19.4 °F 10.4 °F 14.0 °F 80% 30.26 in 10.0 mi NE 6.9 mph - N/A   Overcast
10:35 PM 17.6 °F 10.7 °F 14.0 °F 86% 30.27 in 10.0 mi ENE 4.6 mph - N/A   Overcast
10:55 PM 17.6 °F 12.3 °F 14.0 °F 86% 30.28 in 10.0 mi ENE 3.5 mph - N/A   Overcast
11:15 PM 17.6 °F 7.3 °F 14.0 °F 86% 30.28 in 10.0 mi ENE 8.1 mph - N/A Snow Light Snow
11:35 PM 17.6 °F 7.3 °F 14.0 °F 86% 30.28 in 8.0 mi NE 8.1 mph - N/A Snow Light Snow
11:55 PM 17.6 °F 6.4 °F 14.0 °F 86% 30.29 in 7.0 mi NE 9.2 mph - N/A Snow Light Snow